This demonstration page uses our WeatherBlox Daily Observations layout. Learn more.

Left ArrowRight Arrow

Hourly Observations for November 8, 2016

Temp ( °F °C ) Dew Point ( °F °C ) Humidity (%) Winds ( mph kmh ) Pressure ( in mb ) Visibility ( mi km ) Precip ( " mm )
12:53 am 00:53 Clear 58 14.4 56 13.3 93 93 NE 9 15 30.16 1022 10 16 0.00 0.00
1:53 am 01:53 Clear 56 13.3 54 12.2 93 93 N 8 13 30.18 1022 10 16 0.00 0.00
2:53 am 02:53 Clear 55 12.8 53 11.7 93 93 N 7 11 30.19 1022 8 13 0.00 0.00
3:53 am 03:53 Mostly Cloudy 54 12.2 53 11.7 97 97 NNE 7 11 30.19 1022 8 13 0.00 0.00
4:08 am 04:08 Partly Cloudy 54 12.2 53 11.7 97 97 NNE 7 11 30.27 1025 9 14 0.00 0.00
4:53 am 04:53 Mostly Cloudy 53 11.7 52 11.1 96 96 WNW 7 11 30.23 1024 7 11 0.00 0.00
5:12 am 05:12 Mostly Cloudy with Mist and Fog 54 12 52 11 94 94 NW 8 13 30.30 1026 6 10 0.00 0.00
5:21 am 05:21 Mostly Cloudy 54 12.2 52 11.1 93 93 NNW 9 15 30.30 1026 7 11 0.00 0.00
5:53 am 05:53 Cloudy with Mist and Fog 54 12.2 53 11.7 97 97 NNW 8 13 30.25 1025 5 8 0.00 0.00
6:23 am 06:23 Cloudy with Mist and Fog 55 12.8 53 11.7 93 93 NNW 10 17 30.30 1026 6 10 0.00 0.00
6:53 am 06:53 Cloudy with Mist and Fog 56 13.3 53 11.7 90 90 NNW 9 15 30.28 1025 6 10 0.00 0.00
7:03 am 07:03 Cloudy 55 13 54 12 94 94 N 7 11 30.33 1027 7 11 0.00 0.00
7:44 am 07:44 Partly Cloudy with Mist and Fog 54 12 52 11 94 94 NW 8 13 30.33 1027 5 8 0.00 0.00
7:53 am 07:53 Partly Cloudy with Mist and Fog 54 12.2 52 11.1 93 93 NW 8 13 30.31 1026 5 8 0.00 0.00
8:53 am 08:53 Partly Cloudy 56 13.3 49 9.4 77 77 N 17 28 30.33 1027 10 16 0.00 0.00
9:09 am 09:09 Mostly Cloudy N/A N/A N/A undefined N/A N/A N/A 0.00 0.00
9:53 am 09:53 Cloudy N/A N/A N/A NNE 17 28 N/A 10 16 0.00 0.00
10:53 am 10:53 Cloudy 59 15 48 8.9 67 67 NNE 14 22 30.35 1028 10 16 0.00 0.00
11:28 am 11:28 Mostly Cloudy with Rain 61 16 48 9 63 63 NNE 13 20 30.33 1027 10 16 0.00 0.00
11:53 am 11:53 Cloudy with Light Rain 63 17.2 49 9.4 60 60 NE 13 20 30.32 1027 10 16 0.00 0.00
12:53 pm 12:53 Partly Cloudy with Light Rain 66 18.9 49 9.4 54 54 NNE 15 24 30.28 1025 10 16 0.00 0.00
1:53 pm 13:53 Sunny with Light Rain 68 20 43 6.1 40 40 NNE 20 31 30.25 1024 10 16 0.00 0.00
2:53 pm 14:53 Mostly Cloudy 66 18.9 44 6.7 45 45 NNE 21 33 30.24 1024 10 16 0.00 0.00
3:53 pm 15:53 Mostly Cloudy 64 17.8 46 7.8 52 52 NE 20 31 30.24 1024 10 16 0.00 0.00
4:53 pm 16:53 Mostly Sunny 63 17.2 46 7.8 54 54 NE 20 31 30.24 1024 10 16 0.00 0.00
5:53 pm 17:53 Sunny 60 15.6 46 7.8 60 60 NNE 16 26 30.24 1024 10 16 0.00 0.00
6:53 pm 18:53 Cloudy 59 15 48 8.9 67 67 NE 8 13 30.26 1025 10 16 0.00 0.00
7:53 pm 19:53 Cloudy 59 15 47 8.3 64 64 ENE 6 9 30.28 1025 10 16 0.00 0.00
8:53 pm 20:53 Cloudy 58 14.4 49 9.4 72 72 E 3 6 30.30 1026 10 16 0.00 0.00
9:53 pm 21:53 Cloudy 57 13.9 50 10 78 78 VRB 3 6 30.30 1026 10 16 0.00 0.00
10:53 pm 22:53 Cloudy 58 14.4 47 8.3 67 67 NNE 7 11 30.30 1026 10 16 0.00 0.00
11:53 pm 23:53 Cloudy 57 13.9 48 8.9 72 72 N 3 6 30.30 1026 10 16 0.00 0.00

Powered by AerisWeather